Regional Weather Roundup
Issued by NWS Charleston, SC

Current Version | Previous Version | Graphics & Text | Print | Product List | Glossary On
Versions: 1 2 3 4 5 6 7 8 9 10 11 12 13 14 15 16 17 18 19 20 21 22 23 24 25 26 27 28 29 30 31 32 33 34 35 36 37 38 39 40 41 42 43 44 45 46 47 48 49 50
000
ASUS42 KCHS 311426
RWRCHS

REGIONAL WEATHER ROUNDUP
NATIONAL WEATHER SERVICE CHARLESTON SC
1000 AM EDT MON AUG 31 2015

NOTE: "FAIR" INDICATES FEW OR NO CLOUDS BELOW 12,000 FEET WITH NO
SIGNIFICANT WEATHER AND/OR OBSTRUCTIONS TO VISIBILITY.

NOT ALL STATIONS ARE QUALITY CONTROLLED BY THE NATIONAL
WEATHER SERVICE. USE DATA WITH CAUTION...ESPECIALLY
DEWPOINT OBSERVATIONS.

SCZ027-030-031-034>040-042>050-311500-
...SOUTHEAST SOUTH CAROLINA...

CITY           SKY/WX    TMP DP  RH WIND       PRES   REMARKS
N CHARLESTON   PTSUNNY   76  73  91 NE6       30.06R
WATERFRONT PRK   N/A     75  75 100 CALM      30.02R
MOUNT PLEASANT LGT RAIN  73  73 100 NW3       30.05S
JOHNS ISLAND   FAIR      77  75  94 NW7       30.04F
PINOPOLIS        N/A     79  73  83 NE9       29.99S
MONCKS CORNER  CLOUDY    75  73  94 CALM      30.07R
SUMMERVILLE    CLOUDY    77  75  94 N7        30.07S
BEAUFORT MCAS  PTSUNNY   77  74  90 N5        30.06S
BEAUFORT ARPT  FAIR      77  77 100 CALM      30.05F
HILTON HEAD IS PTSUNNY   77  73  88 N6        30.08R
WALTERBORO     CLOUDY    79  73  83 N6        30.08S
ALLENDALE      CLOUDY    73  72  94 N7        30.09R

...SOUTHERN MIDLANDS AND PEE DEE...

CITY           SKY/WX    TMP DP  RH WIND       PRES   REMARKS
GEORGETOWN     NOT AVBL
KINGSTREE      NOT AVBL
ORANGEBURG     CLOUDY    72  68  87 NE9       30.11R
BARNWELL       CLOUDY    73  72  94 NE7       30.11R
AIKEN          CLOUDY    64  63  94 N7        30.16R
MANNING        CLOUDY    73  72  94 N8        30.09S
COLUMBIA       CLOUDY    72  67  84 NE5       30.11R
SUMTER         CLOUDY    72  68  88 N7        30.09R
FLORENCE       CLOUDY    74  70  87 N6        30.10S
MYRTLE BEACH   LGT RAIN  73  70  88 CALM      30.11R
N MYRTLE BEACH LGT RAIN  75  73  93 S6        30.09S

$$

GAZ063-065-086>088-099>101-113>116-118-119-134>141-150-311500-
...SOUTHEAST GEORGIA...

CITY           SKY/WX    TMP DP  RH WIND       PRES   REMARKS
SAVANNAH ARPT  CLOUDY    75  73  94 N6        30.08R
HUNTER AAF     CLOUDY    77  77 100 N3        30.04R
FORT STEWART   CLOUDY    76  74  93 N3        30.06R
STATESBORO     CLOUDY    74  32  21 N5        30.10R
SYLVANIA       CLOUDY    75  75  99 N6        30.10S FOG
CLAXTON        NOT AVBL

...CSRA...CENTRAL AND FAR SOUTHEAST GEORGIA...

CITY           SKY/WX    TMP DP  RH WIND       PRES   REMARKS
THOMSON        CLOUDY    71  71 100 NW5       30.18R VSB 3/4
AUGUSTA-BUSH   CLOUDY    73  70  90 N5        30.10R
AUGUSTA-DANIEL CLOUDY    75  69  81 N8        30.13R
SWAINSBORO     CLOUDY   N/A N/A N/A N7        30.12R
VIDALIA        CLOUDY    73  72  94 N3        30.11R
EASTMAN        CLOUDY    76  76  99 NE6       30.13R
HAZLEHURST     CLOUDY    77  75  95 N7        30.10R
ALMA           CLOUDY    79  74  84 VRB3      30.09R
WAYCROSS       CLOUDY    82  78  90 N5        30.08R HX  90
JESUP          CLOUDY    81  77  89 N6        30.08R
BAXLEY         CLOUDY    79  73  83 N7        30.09R
BRUNSWICK      CLOUDY    77  73  88 NW5       30.07S
SAINT SIMONS   PTSUNNY   80  75  84 NW6       30.06R

$$

SCZ027-028-034-036>038-045-046-048>050-GAZ119-141-311500-
...LAKE AND SUPPLEMENTAL COASTAL OBSERVATIONS...

STATION/POSITION TIME  TEMP    WIND        PRES    WAVE   SWELL
                       AIR SEA DIR/SP/G            HT/PER HT/PER/DIR
                 (UTC) (F)     (DEG/KT/KT) (MB)    (FT/S) (FT/S/D)
UPR LAKE MARION  NOT AVBL
WINYAH BAY       1245   77     130/  7     1017.0
LAKE MURRAY      1300   68      20/  2/  7 1019.0R
ACE BASIN NERRS  NOT AVBL
FORT PULASKI     NOT AVBL
SAPELO ISLAND    1300   77     340/  4     1017.0R

$$

ANZ835-935-AMZ111-154-330-350-352-354-370-450-454-472-311500-
...C-MAN AND BUOY OBSERVATIONS...

STATION/POSITION TIME  TEMP    WIND        PRES    WAVE   SWELL
                       AIR SEA DIR/SP/G            HT/PER HT/PER/DIR
                 (UTC) (F)     (DEG/KT/KT) (MB)    (FT/S) (FT/S/D)
BUOY 41004       1350   83 84  180/ 17/ 21 1016.9R   6/10   5/10
BUOY 41008       1350   80 84  310/ 10/ 12 1017.3R   5/ 7   5/120/ 7
FOLLY BEACH CMAN 1400   75     320/  4/  7 1017.2R
CAPERS NEARSHORE 1308   79     200/ 17/ 23 1017.7F
FRIPP NEARSHORE  1300   80     280/  2/  6 1016.7R


STATION/POSITION TIME  TEMP    WIND        PRES    WAVE   SWELL
                       AIR SEA DIR/SP/G            HT/PER HT/PER/DIR
                 (UTC) (F)     (DEG/KT/KT) (MB)    (FT/S) (FT/S/D)
5E ST. MARYS GA  1321      85                N/A     4/10   2/100/11
FRYING PAN BUOY  1350   82 82  210/  8/ 10 1018.8S   4/ 9   3/120/ 9
BUOY 41025       1350   82 84  150/  4/  6 1020.4R   3/10   3/ 80/10
CAPE LOOKOUT NC  1400   79     110/ 11/ 12 1019.3F
BUOY 41002       1350   83 84  130/ 14/ 17 1019.8R   3/ 8   3/150/ 8
BUOY 41010       1320   84 85  140/ 12/ 14 1018.1R
ST AUGUSTINE FL  1400   80 84  240/  2/  2 1018.8R


$$



USA.gov is the U.S. government's official web portal to all federal, state and local government web resources and services.